BMCB-11 Weather Reports


time (UTC)temp
F
wind
direction
speed
knots
gust
knots
rain 1hr
in
rain 24hr
in
rain mn
in
humidity
%
barometer
mb
20260510042031 50 0 0.0 0.0 0.00 0.00 0.00 85 1014.8
20260510041022 50 0 0.0 0.0 0.00 0.00 0.00 84 1014.7
20260510040016 50 0 0.0 0.0 0.00 0.00 0.00 83 1014.7
20260510035022 50 0 0.0 0.0 0.00 0.00 0.00 83 1014.7
20260510034017 50 0 0.0 0.0 0.00 0.00 0.00 84 1014.7
20260510033048 50 0 0.0 0.0 0.00 0.00 0.00 83 1014.7
20260510032016 50 0 0.0 0.0 0.00 0.00 0.00 83 1014.7
20260510030022 50 0 0.0 0.0 0.00 0.00 0.00 84 1014.9
20260510025023 50 0 0.0 0.0 0.00 0.00 0.00 83 1015.0
20260510024022 50 0 0.0 0.0 0.00 0.00 0.00 84 1015.1
20260510022020 50 0 0.0 0.0 0.00 0.00 0.00 83 1015.2
20260510021023 50 0 0.0 0.0 0.00 0.00 0.00 83 1015.2
20260510015022 51 0 0.0 0.0 0.00 0.00 0.00 82 1015.1
20260510014022 51 0 0.0 0.0 0.00 0.00 0.00 82 1015.2
20260510013019 51 0 0.0 0.0 0.00 0.00 0.00 82 1015.3
20260510012023 51 0 0.0 0.0 0.00 0.00 0.00 81 1015.5
20260510011028 52 0 0.0 0.0 0.00 0.00 0.00 81 1015.5
20260510010032 52 0 0.0 0.0 0.00 0.00 0.00 81 1015.6
20260510004021 52 0 0.0 0.0 0.00 0.00 0.00 80 1015.7
20260510003044 52 0 0.0 0.0 0.00 0.00 0.00 80 1015.8
20260510001024 53 0 0.0 0.0 0.00 0.00 0.00 78 1015.9
20260510000047 53 0 0.0 0.0 0.00 0.00 0.00 77 1016.0
20260509235050 54 0 0.0 0.0 0.00 0.00 0.00 76 1016.0
20260509233045 55 0 0.0 0.0 0.00 0.00 0.00 74 1016.0
20260509232045 55 0 0.0 0.0 0.00 0.00 0.00 74 1016.0
20260509225048 55 0 0.0 0.0 0.00 0.00 0.00 75 1016.1
20260509223048 55 0 0.0 0.0 0.00 0.00 0.00 74 1016.1
20260509222051 55 0 0.0 0.0 0.00 0.00 0.00 75 1016.2
20260509221047 55 0 0.0 0.0 0.00 0.00 0.00 74 1016.1
20260509220047 56 0 0.0 0.0 0.00 0.00 0.00 74 1016.2
20260509215051 56 0 0.0 0.0 0.00 0.00 0.00 72 1016.2
20260509214051 57 0 0.0 0.0 0.00 0.00 0.00 71 1016.2
20260509213049 57 0 0.0 0.0 0.00 0.00 0.00 70 1016.1
20260509212051 57 0 0.0 0.0 0.00 0.00 0.00 69 1016.1
20260509211052 58 0 0.0 0.0 0.00 0.00 0.00 68 1016.1
20260509210049 59 0 0.0 0.0 0.00 0.00 0.00 67 1016.0
20260509205051 59 0 0.0 0.0 0.00 0.00 0.00 67 1016.1
20260509204050 59 0 0.0 0.0 0.00 0.00 0.00 66 1016.0
20260509203051 59 0 0.0 0.0 0.00 0.00 0.00 65 1016.0
20260509202052 59 0 0.0 0.0 0.00 0.00 0.00 65 1016.0
20260509201058 60 0 0.0 0.0 0.00 0.00 0.00 64 1015.9
20260509200050 60 0 0.0 0.0 0.00 0.00 0.00 63 1015.7
20260509195051 61 0 0.0 0.0 0.00 0.00 0.00 62 1015.7
20260509194048 61 0 0.0 0.0 0.00 0.00 0.00 61 1015.6
20260509193051 62 0 0.0 0.0 0.00 0.00 0.00 61 1015.6
20260509192050 62 0 0.0 0.0 0.00 0.00 0.00 59 1015.5
20260509191051 63 0 0.0 0.0 0.00 0.00 0.00 58 1015.5
20260509190051 63 0 0.0 0.0 0.00 0.00 0.00 56 1015.5
20260509185049 64 0 0.0 0.0 0.00 0.00 0.00 55 1015.4
20260509184048 64 0 0.0 0.0 0.00 0.00 0.00 55 1015.3
20260509183050 65 0 0.0 0.0 0.00 0.00 0.00 53 1015.3
20260509182049 65 0 0.0 0.0 0.00 0.00 0.00 53 1015.3
20260509181048 66 0 0.0 0.0 0.00 0.00 0.00 53 1015.2
20260509180049 66 0 0.0 0.0 0.00 0.00 0.00 52 1015.2
20260509175043 66 0 0.0 0.0 0.00 0.00 0.00 53 1015.2
20260509174047 67 0 0.0 0.0 0.00 0.00 0.00 52 1015.1
20260509172050 67 0 0.0 0.0 0.00 0.00 0.00 51 1015.2
20260509170048 68 0 0.0 0.0 0.00 0.00 0.00 51 1015.1
20260509165045 68 0 0.0 0.0 0.00 0.00 0.00 53 1015.1
20260509164048 68 0 0.0 0.0 0.00 0.00 0.00 53 1015.2
20260509162049 68 0 0.0 0.0 0.00 0.00 0.00 52 1015.2
20260509161048 69 0 0.0 0.0 0.00 0.00 0.00 51 1015.2
20260509160048 70 0 0.0 0.0 0.00 0.00 0.00 49 1015.1
20260509155044 71 0 0.0 0.0 0.00 0.00 0.00 46 1015.0
20260509154048 70 0 0.0 0.0 0.00 0.00 0.00 50 1015.0
20260509153047 71 0 0.0 0.0 0.00 0.00 0.00 51 1015.1
20260509152052 70 0 0.0 0.0 0.00 0.00 0.00 51 1015.2
20260509151019 70 0 0.0 0.0 0.00 0.00 0.00 51 1015.3
20260509150020 70 0 0.0 0.0 0.00 0.00 0.00 51 1015.2
20260509144017 70 0 0.0 0.0 0.00 0.00 0.00 50 1015.4
20260509143016 70 0 0.0 0.0 0.00 0.00 0.00 51 1015.6
20260509141015 70 0 0.0 0.0 0.00 0.00 0.00 52 1015.8
20260509140016 68 0 0.0 0.0 0.00 0.00 0.00 56 1015.8
20260509134015 70 0 0.0 0.0 0.00 0.00 0.00 52 1015.9
20260509133016 71 0 0.0 0.0 0.00 0.00 0.00 51 1016.0
20260509132019 71 0 0.0 0.0 0.00 0.00 0.00 50 1016.2
20260509131016 70 0 0.0 0.0 0.00 0.00 0.00 53 1016.3
20260509130016 70 0 0.0 0.0 0.00 0.00 0.00 52 1016.2
20260509124017 69 0 0.0 0.0 0.00 0.00 0.00 53 1016.4
20260509121016 69 0 0.0 0.0 0.00 0.00 0.00 56 1016.7
20260509120015 69 0 0.0 0.0 0.00 0.00 0.00 56 1016.8
20260509115017 69 0 0.0 0.0 0.00 0.00 0.00 55 1016.9
20260509114017 68 0 0.0 0.0 0.00 0.00 0.00 56 1017.0
20260509113022 68 0 0.0 0.0 0.00 0.00 0.00 57 1017.1
20260509112016 68 0 0.0 0.0 0.00 0.00 0.00 57 1017.2
20260509111019 67 0 0.0 0.0 0.00 0.00 0.00 56 1017.3
20260509110017 68 0 0.0 0.0 0.00 0.00 0.00 57 1017.4
20260509105017 68 0 0.0 0.0 0.00 0.00 0.00 56 1017.5
20260509104023 67 0 0.0 0.0 0.00 0.00 0.00 58 1017.5
20260509103016 67 0 0.0 0.0 0.00 0.00 0.00 60 1017.6
20260509102016 66 0 0.0 0.0 0.00 0.00 0.00 61 1017.6
20260509100016 66 0 0.0 0.0 0.00 0.00 0.00 64 1017.7
20260509095016 65 0 0.0 0.0 0.00 0.00 0.00 65 1017.7
20260509094020 65 0 0.0 0.0 0.00 0.00 0.00 67 1017.9
20260509093017 64 0 0.0 0.0 0.00 0.00 0.00 68 1017.9
20260509092016 64 0 0.0 0.0 0.00 0.00 0.00 69 1017.9
20260509090016 62 0 0.0 0.0 0.00 0.00 0.00 72 1018.0
20260509085017 62 0 0.0 0.0 0.00 0.00 0.00 73 1018.0
20260509084023 62 0 0.0 0.0 0.00 0.00 0.00 74 1018.1
20260509083016 62 0 0.0 0.0 0.00 0.00 0.00 73 1018.1
20260509082024 61 0 0.0 0.0 0.00 0.00 0.00 75 1018.0
20260509081051 60 0 0.0 0.0 0.00 0.00 0.00 74 1018.2
20260509080021 60 0 0.0 0.0 0.00 0.00 0.00 74 1018.2
20260509075020 59 0 0.0 0.0 0.00 0.00 0.00 77 1018.3
20260509074020 57 0 0.0 0.0 0.00 0.00 0.00 77 1018.3
20260509073018 58 0 0.0 0.0 0.00 0.00 0.00 76 1018.3
20260509072020 57 0 0.0 0.0 0.00 0.00 0.00 77 1018.3
20260509071017 56 0 0.0 0.0 0.00 0.00 0.00 78 1018.3
20260509070020 54 0 0.0 0.0 0.00 0.00 0.00 80 1018.4
20260509065020 54 0 0.0 0.0 0.00 0.00 0.00 80 1018.4
20260509064017 53 0 0.0 0.0 0.00 0.00 0.00 81 1018.4
20260509063019 53 0 0.0 0.0 0.00 0.00 0.00 80 1018.5
20260509062045 53 0 0.0 0.0 0.00 0.00 0.00 80 1018.4
20260509061021 53 0 0.0 0.0 0.00 0.00 0.00 81 1018.4
20260509055020 51 0 0.0 0.0 0.00 0.00 0.00 83 1018.4
20260509054017 50 0 0.0 0.0 0.00 0.00 0.00 84 1018.4
20260509053047 50 0 0.0 0.0 0.00 0.00 0.00 85 1018.3
20260509051020 49 0 0.0 0.0 0.00 0.00 0.00 86 1018.2
20260509045020 48 0 0.0 0.0 0.00 0.00 0.00 86 1018.1